Location: Newark
(23.1300°N, 73.6109°E)
Time: 05:27:29
(UTC+00:00)

Hubble Space Telescope - Pass Details

Date: 24 July 2021
Orbit: 535 x 539 km, 28.5° (Epoch: 19 September)

Event Time Altitude Azimuth Distance (km) Brightness Sun altitude
Rises 14:12:51 0° 251° (WSW) 2,664 5.1 -5.4°
Reaches altitude 10° 14:15:06 10° 252° (WSW) 1,774 4.2 -5.9°
Maximum altitude 14:19:12 89° 323° (NW) 534 0.8 -6.7°
Drops below altitude 10° 14:23:19 10° 72° (ENE) 1,775 3.0 -7.6°
Enters shadow 14:25:00 - 72° (ENE) 2,432 3.7 -7.9°
